GW5459 Weather Reports


time (UTC)temp
C
wind
direction
speed
KPH
gust
KPH
rain 1hr
cm
rain 24hr
cm
rain mn
cm
humidity
%
barometer
mb
20260510154702 13 226 3.2 3.2 0.00 0.00 0.00 29 1010.0
20260510154203 14 306 3.2 3.2 0.00 0.00 0.00 31 1010.0
20260510153703 13 354 6.4 6.4 0.00 0.00 0.00 32 1010.0
20260510153201 13 296 3.2 3.2 0.00 0.00 0.00 31 1010.0
20260510152702 13 239 9.7 9.7 0.00 0.00 0.00 32 1010.0
20260510152202 13 256 3.2 3.2 0.00 0.00 0.00 33 1010.0
20260510151702 14 270 0.0 0.0 0.00 0.00 0.00 30 1010.0
20260510151203 13 348 3.2 3.2 0.00 0.00 0.00 32 1010.0
20260510150703 14 258 3.2 3.2 0.00 0.00 0.00 33 1010.0
20260510150202 13 276 4.8 4.8 0.00 0.00 0.00 33 1010.0
20260510145702 13 294 1.6 1.6 0.00 0.00 0.00 33 1010.0
20260510145203 13 250 3.2 3.2 0.00 0.00 0.00 33 1010.0
20260510144703 13 249 3.2 3.2 0.00 0.00 0.00 34 1010.0
20260510144202 13 324 3.2 3.2 0.00 0.00 0.00 37 1010.0
20260510143710 13 263 1.6 1.6 0.00 0.00 0.00 35 1010.0
20260510143202 12 354 3.2 3.2 0.00 0.00 0.00 37 1010.0
20260510142703 12 264 1.6 1.6 0.00 0.00 0.00 36 1010.0
20260510142202 12 303 0.0 0.0 0.00 0.00 0.00 38 1010.0
20260510141703 12 222 0.0 0.0 0.00 0.00 0.00 39 1010.0
20260510141202 12 324 3.2 3.2 0.00 0.00 0.00 37 1010.0
20260510140702 12 324 0.0 0.0 0.00 0.00 0.00 37 1010.0
20260510140202 12 228 6.4 8.0 0.00 0.00 0.00 38 1010.0
20260510135702 13 18 3.2 3.2 0.00 0.00 0.00 38 1010.0
20260510135202 12 211 0.0 0.0 0.00 0.00 0.00 39 1010.0
20260510134702 11 204 1.6 1.6 0.00 0.00 0.00 41 1010.0
20260510134203 11 245 4.8 6.4 0.00 0.00 0.00 41 1009.0
20260510133702 12 6 3.2 3.2 0.00 0.00 0.00 40 1009.0
20260510133202 12 312 3.2 3.2 0.00 0.00 0.00 42 1009.0
20260510132702 11 258 3.2 3.2 0.00 0.00 0.00 42 1009.0
20260510132202 11 348 0.0 0.0 0.00 0.00 0.00 43 1009.0
20260510131703 11 245 0.0 0.0 0.00 0.00 0.00 42 1009.0
20260510131204 11 12 0.0 0.0 0.00 0.00 0.00 43 1009.0
20260510130703 11 252 1.6 1.6 0.00 0.00 0.00 44 1009.0
20260510130203 11 60 3.2 3.2 0.00 0.00 0.00 42 1009.0
20260510125702 11 26 0.0 0.0 0.00 0.00 0.00 46 1009.0
20260510125202 10 43 0.0 0.0 0.00 0.00 0.00 44 1009.0
20260510124702 10 84 1.6 1.6 0.00 0.00 0.00 45 1009.0
20260510124202 10 77 3.2 3.2 0.00 0.00 0.00 45 1009.0
20260510123703 10 306 3.2 3.2 0.00 0.00 0.00 47 1009.0
20260510123202 10 12 3.2 3.2 0.00 0.00 0.00 48 1009.0
20260510122702 9 353 3.2 3.2 0.00 0.00 0.00 47 1009.0
20260510122207 10 90 4.8 4.8 0.00 0.00 0.00 49 1009.0
20260510121703 10 354 3.2 3.2 0.00 0.00 0.00 50 1009.0
20260510121204 9 42 0.0 0.0 0.00 0.00 0.00 50 1008.0
20260510120702 9 42 0.0 0.0 0.00 0.00 0.00 51 1008.0
20260510120202 9 339 3.2 3.2 0.00 0.00 0.00 52 1008.0
20260510115703 9 318 1.6 1.6 0.00 0.00 0.00 52 1008.0
20260510115203 8 348 3.2 3.2 0.00 0.00 0.00 54 1008.0
20260510114704 8 42 3.2 3.2 0.00 0.00 0.00 56 1008.0
20260510114202 8 6 0.0 0.0 0.00 0.00 0.00 59 1008.0
20260510113703 8 18 1.6 1.6 0.00 0.00 0.00 56 1008.0
20260510113202 8 18 0.0 0.0 0.00 0.00 0.00 59 1008.0
20260510112702 7 354 0.0 0.0 0.00 0.00 0.00 61 1008.0
20260510112202 7 354 0.0 0.0 0.00 0.00 0.00 66 1008.0
20260510111702 6 33 3.2 3.2 0.00 0.00 0.00 67 1008.0
20260510111202 6 354 0.0 0.0 0.00 0.00 0.00 74 1008.0
20260510110703 5 354 0.0 0.0 0.00 0.00 0.00 75 1008.0
20260510110202 5 354 0.0 0.0 0.00 0.00 0.00 77 1008.0
20260510105702 4 186 0.0 0.0 0.00 0.00 0.00 79 1008.0
20260510105203 4 204 0.0 0.0 0.00 0.00 0.00 81 1008.0
20260510104702 3 186 0.0 0.0 0.00 0.00 0.00 81 1008.0
20260510104202 3 186 0.0 0.0 0.00 0.00 0.00 80 1007.0
20260510103702 4 186 0.0 0.0 0.00 0.00 0.00 80 1007.0
20260510103202 4 186 0.0 0.0 0.00 0.00 0.00 80 1007.0
20260510102702 4 186 0.0 0.0 0.00 0.00 0.00 79 1007.0
20260510102206 4 186 0.0 0.0 0.00 0.00 0.00 78 1007.0
20260510101702 5 186 0.0 0.0 0.00 0.00 0.00 77 1007.0
20260510101202 5 192 0.0 0.0 0.00 0.00 0.00 76 1007.0
20260510100703 5 204 0.0 0.0 0.00 0.00 0.00 74 1007.0
20260510100202 5 300 0.0 0.0 0.00 0.00 0.00 72 1007.0
20260510095703 5 348 0.0 0.0 0.00 0.00 0.00 71 1007.0
20260510095202 6 354 0.0 0.0 0.00 0.00 0.00 70 1007.0
20260510094702 6 354 0.0 0.0 0.00 0.00 0.00 70 1007.0
20260510094203 6 354 0.0 0.0 0.00 0.00 0.00 70 1007.0
20260510093702 6 354 0.0 0.0 0.00 0.00 0.00 69 1007.0
20260510093203 5 354 0.0 0.0 0.00 0.00 0.00 70 1007.0
20260510092702 5 0 0.0 0.0 0.00 0.00 0.00 72 1007.0
20260510092202 6 1 0.0 0.0 0.00 0.00 0.00 71 1007.0
20260510091703 5 1 0.0 0.0 0.00 0.00 0.00 72 1007.0
20260510091203 5 1 0.0 0.0 0.00 0.00 0.00 73 1006.0
20260510090703 5 1 0.0 0.0 0.00 0.00 0.00 75 1006.0
20260510090203 5 1 0.0 0.0 0.00 0.00 0.00 74 1006.0
20260510085702 5 1 0.0 0.0 0.00 0.00 0.00 74 1006.0
20260510085202 6 1 0.0 0.0 0.00 0.00 0.00 73 1006.0
20260510084702 6 1 0.0 0.0 0.00 0.00 0.00 73 1006.0
20260510084202 6 1 0.0 0.0 0.00 0.00 0.00 72 1006.0
20260510083702 6 1 0.0 0.0 0.00 0.00 0.00 70 1006.0
20260510083203 6 1 0.0 0.0 0.00 0.00 0.00 70 1006.0
20260510082702 7 0 0.0 0.0 0.00 0.00 0.00 69 1005.0
20260510082202 7 0 0.0 0.0 0.00 0.00 0.00 67 1005.0
20260510081705 7 0 0.0 0.0 0.00 0.00 0.00 66 1005.0
20260510081203 7 0 0.0 0.0 0.00 0.00 0.00 65 1005.0
20260510080703 8 0 0.0 0.0 0.00 0.00 0.00 63 1005.0
20260510080202 8 0 0.0 0.0 0.00 0.00 0.00 62 1005.0
20260510075702 8 0 0.0 0.0 0.00 0.00 0.00 60 1005.0
20260510075203 8 348 0.0 0.0 0.00 0.00 0.00 59 1005.0
20260510074702 8 348 4.8 4.8 0.00 0.00 0.00 59 1005.0
20260510074202 8 65 3.2 3.2 0.00 0.00 0.00 57 1004.0
20260510073702 8 335 4.8 4.8 0.00 0.00 0.00 59 1004.0
20260510073202 8 340 0.0 0.0 0.00 0.00 0.00 61 1004.0
20260510072703 8 18 0.0 0.0 0.00 0.00 0.00 60 1004.0
20260510072202 8 18 3.2 3.2 0.00 0.00 0.00 63 1004.0
20260510071703 8 6 0.0 0.0 0.00 0.00 0.00 63 1004.0
20260510071202 8 18 0.0 0.0 0.00 0.00 0.00 65 1004.0
20260510070704 8 18 0.0 0.0 0.00 0.00 0.00 65 1004.0
20260510070203 8 324 0.0 0.0 0.00 0.00 0.00 67 1004.0
20260510065702 8 324 0.0 0.0 0.00 0.00 0.00 66 1004.0
20260510065202 7 294 0.0 0.0 0.00 0.00 0.00 69 1004.0
20260510064703 8 294 0.0 0.0 0.00 0.00 0.00 69 1004.0
20260510064202 8 294 0.0 0.0 0.00 0.00 0.00 67 1004.0
20260510063704 8 294 0.0 0.0 0.00 0.00 0.00 66 1004.0
20260510063202 8 294 0.0 0.0 0.00 0.00 0.00 65 1004.0
20260510062702 8 294 0.0 0.0 0.00 0.00 0.00 63 1004.0
20260510062202 9 294 0.0 0.0 0.00 0.00 0.00 62 1004.0
20260510061702 9 294 0.0 0.0 0.00 0.00 0.00 62 1004.0
20260510061203 10 294 0.0 0.0 0.00 0.00 0.00 60 1003.0
20260510060702 10 294 0.0 0.0 0.00 0.00 0.00 58 1003.0
20260510060203 10 294 0.0 0.0 0.00 0.00 0.00 57 1003.0
20260510055702 10 294 0.0 0.0 0.00 0.00 0.00 56 1003.0
20260510055202 11 294 0.0 0.0 0.00 0.00 0.00 55 1003.0
20260510054703 11 342 3.2 3.2 0.00 0.00 0.00 55 1003.0
20260510054202 11 348 0.0 0.0 0.00 0.00 0.00 55 1003.0
20260510053702 11 348 3.2 3.2 0.00 0.00 0.00 54 1003.0
20260510053202 11 348 0.0 0.0 0.00 0.00 0.00 55 1003.0
20260510052702 11 346 1.6 1.6 0.00 0.00 0.00 56 1003.0
20260510052203 11 330 3.2 3.2 0.00 0.00 0.00 56 1003.0
20260510051702 11 100 0.0 0.0 0.00 0.00 0.00 56 1003.0
20260510051203 11 18 0.0 0.0 0.00 0.00 0.00 55 1002.0
20260510050702 12 24 3.2 3.2 0.00 0.00 0.00 54 1002.0
20260510050202 12 336 0.0 0.0 0.00 0.00 0.00 56 1002.0
20260510045702 12 60 0.0 0.0 0.00 0.00 0.00 56 1002.0
20260510045202 12 0 3.2 3.2 0.00 0.00 0.00 57 1002.0
20260510044702 12 36 3.2 3.2 0.00 0.00 0.00 57 1002.0
20260510044203 12 24 3.2 3.2 0.00 0.00 0.00 57 1002.0
20260510043702 12 48 3.2 3.2 0.00 0.00 0.00 56 1002.0
20260510043203 12 72 3.2 3.2 0.00 0.00 0.00 57 1002.0
20260510042702 12 60 0.0 0.0 0.00 0.00 0.00 55 1002.0
20260510042202 12 324 0.0 0.0 0.00 0.00 0.00 56 1002.0
20260510041702 12 324 0.0 0.0 0.00 0.00 0.00 54 1002.0
20260510041203 12 324 0.0 0.0 0.00 0.00 0.00 53 1001.0
20260510040704 13 324 0.0 0.0 0.00 0.00 0.00 52 1001.0
20260510040203 13 324 0.0 0.0 0.00 0.00 0.00 51 1001.0
20260510035703 13 324 0.0 0.0 0.00 0.00 0.00 50 1001.0
20260510035204 13 30 0.0 0.0 0.00 0.00 0.00 50 1001.0
20260510034702 13 30 3.2 3.2 0.00 0.00 0.00 49 1001.0
20260510034202 14 30 3.2 3.2 0.00 0.00 0.00 48 1001.0
20260510033704 14 341 0.0 0.0 0.00 0.00 0.00 47 1001.0
20260510033203 14 252 1.6 1.6 0.00 0.00 0.00 48 1001.0
20260510032703 15 252 0.0 0.0 0.00 0.00 0.00 48 1001.0
20260510032202 15 12 3.2 3.2 0.00 0.00 0.00 47 1001.0
20260510031702 15 348 0.0 0.0 0.00 0.00 0.00 46 1001.0
20260510031203 15 6 3.2 3.2 0.00 0.00 0.00 46 1001.0
20260510030704 15 18 1.6 1.6 0.00 0.00 0.00 45 1001.0
20260510030203 15 294 3.2 3.2 0.00 0.00 0.00 44 1001.0
20260510025702 15 328 0.0 0.0 0.00 0.00 0.00 46 1000.0
20260510025202 15 336 0.0 0.0 0.00 0.00 0.00 44 1000.0
20260510024702 15 320 3.2 3.2 0.00 0.00 0.00 43 1000.0
20260510024202 16 306 4.8 4.8 0.00 0.00 0.00 43 1000.0
20260510023702 16 223 8.0 8.0 0.00 0.00 0.00 42 1000.0
20260510023203 16 309 3.2 3.2 0.00 0.00 0.00 43 1000.0
20260510022705 16 234 3.2 3.2 0.00 0.00 0.00 45 999.0
20260510022202 16 318 3.2 3.2 0.00 0.00 0.00 44 999.0
20260510021702 16 348 4.8 4.8 0.00 0.00 0.00 47 999.0
20260510021203 16 330 3.2 3.2 0.00 0.00 0.00 48 999.0
20260510020702 16 306 0.0 0.0 0.00 0.00 0.00 47 999.0
20260510020202 16 300 0.0 0.0 0.00 0.00 0.00 48 999.0
20260510015702 16 294 0.0 0.0 0.00 0.00 0.00 48 998.0
20260510015202 16 324 0.0 0.0 0.00 0.00 0.00 48 998.0
20260510014703 16 330 3.2 3.2 0.00 0.00 0.00 49 998.0
20260510014203 15 300 3.2 3.2 0.00 0.00 0.00 50 998.0
20260510013702 15 300 0.0 0.0 0.00 0.00 0.00 53 998.0
20260510013202 15 300 0.0 0.0 0.00 0.00 0.00 55 998.0
20260510012702 15 300 0.0 0.0 0.00 0.00 0.00 53 998.0
20260510012203 15 300 0.0 0.0 0.00 0.00 0.00 51 998.0
20260510011702 15 300 0.0 0.0 0.00 0.00 0.00 50 998.0
20260510011203 16 300 0.0 0.0 0.00 0.00 0.00 49 997.0
20260510010702 16 300 0.0 0.0 0.00 0.00 0.00 48 997.0
20260510010203 16 300 0.0 0.0 0.00 0.00 0.00 47 997.0
20260510005702 16 300 0.0 0.0 0.00 0.00 0.00 47 997.0
20260510005203 17 294 0.0 0.0 0.00 0.00 0.00 44 997.0
20260510004702 17 258 0.0 0.0 0.00 0.00 0.00 44 997.0
20260510004202 17 258 3.2 3.2 0.00 0.00 0.00 43 997.0
20260510003702 17 312 0.0 0.0 0.00 0.00 0.00 43 997.0
20260510003203 18 308 0.0 0.0 0.00 0.00 0.00 42 997.0
20260510002702 18 330 3.2 3.2 0.00 0.00 0.00 40 997.0
20260510001712 18 240 0.0 0.0 0.00 0.00 0.00 41 997.0
20260510001203 18 240 3.2 3.2 0.00 0.00 0.00 39 997.0
20260510000703 18 296 3.2 3.2 0.00 0.00 0.00 39 997.0
20260510000204 19 238 3.2 3.2 0.00 0.00 0.00 38 997.0
20260509235702 19 282 3.2 3.2 0.00 0.00 0.00 37 996.0
20260509235202 19 251 3.2 3.2 0.00 0.00 0.00 38 996.0
20260509234703 19 228 4.8 6.4 0.00 0.00 0.00 37 996.0
20260509234202 19 246 4.8 4.8 0.00 0.00 0.00 37 997.0
20260509233702 19 282 4.8 4.8 0.00 0.00 0.00 36 997.0
20260509233202 19 234 8.0 9.7 0.00 0.00 0.00 37 997.0
20260509232703 20 249 11.3 11.3 0.00 0.00 0.00 37 996.0
20260509232202 20 251 3.2 3.2 0.00 0.00 0.00 37 996.0
20260509231703 20 300 3.2 3.2 0.00 0.00 0.00 35 996.0
20260509231202 20 182 3.2 3.2 0.00 0.00 0.00 35 996.0
20260509230702 20 110 4.8 4.8 0.00 0.00 0.00 35 996.0
20260509230203 20 240 6.4 6.4 0.00 0.00 0.00 35 996.0
20260509225703 20 226 4.8 4.8 0.00 0.00 0.00 34 996.0
20260509225202 20 265 8.0 9.7 0.00 0.00 0.00 34 996.0
20260509224702 20 307 3.2 3.2 0.00 0.00 0.00 34 996.0
20260509224202 20 14 4.8 4.8 0.00 0.00 0.00 34 996.0
20260509223703 20 256 4.8 4.8 0.00 0.00 0.00 35 996.0
20260509223203 21 264 4.8 4.8 0.00 0.00 0.00 34 996.0
20260509222702 20 186 6.4 8.0 0.00 0.00 0.00 34 995.0
20260509222202 20 269 4.8 4.8 0.00 0.00 0.00 34 995.0
20260509221702 21 346 3.2 3.2 0.00 0.00 0.00 34 995.0
20260509221202 21 228 9.7 11.3 0.00 0.00 0.00 31 995.0
20260509220703 21 208 9.7 11.3 0.00 0.00 0.00 32 995.0
20260509220204 21 157 6.4 8.0 0.00 0.00 0.00 34 995.0
20260509215702 21 295 3.2 3.2 0.00 0.00 0.00 34 995.0
20260509215202 21 234 4.8 4.8 0.00 0.00 0.00 35 995.0
20260509214702 21 42 3.2 3.2 0.00 0.00 0.00 37 995.0
20260509214202 21 246 4.8 6.4 0.00 0.00 0.00 36 995.0
20260509213703 21 256 14.5 16.1 0.00 0.00 0.00 37 995.0
20260509213204 21 256 6.4 6.4 0.00 0.00 0.00 37 995.0
20260509212704 21 235 6.4 8.0 0.00 0.00 0.00 39 995.0
20260509212202 21 307 1.6 1.6 0.00 0.00 0.00 39 995.0
20260509211702 20 228 4.8 6.4 0.00 0.00 0.00 39 995.0
20260509211202 20 359 3.2 3.2 0.00 0.00 0.00 39 995.0
20260509210702 20 259 4.8 4.8 0.00 0.00 0.00 41 995.0
20260509210202 20 247 0.0 0.0 0.00 0.00 0.00 43 995.0
20260509205702 20 240 4.8 4.8 0.00 0.00 0.00 43 995.0
20260509205202 20 268 6.4 6.4 0.00 0.00 0.00 42 995.0
20260509204703 20 342 4.8 4.8 0.00 0.00 0.00 45 995.0
20260509204203 20 306 9.7 9.7 0.00 0.00 0.00 43 995.0
20260509203702 20 233 11.3 11.3 0.00 0.00 0.00 46 995.0
20260509203203 20 272 3.2 3.2 0.00 0.00 0.00 48 995.0
20260509202702 20 333 4.8 6.4 0.00 0.00 0.00 52 996.0
20260509202202 19 96 0.0 0.0 0.00 0.00 0.00 55 996.0
20260509201702 18 282 3.2 3.2 0.00 0.00 0.00 64 996.0
20260509201202 18 288 3.2 3.2 0.00 0.00 0.00 69 996.0
20260509200702 19 353 3.2 3.2 0.00 0.00 0.00 73 996.0
20260509200203 18 300 3.2 3.2 0.00 0.00 0.00 71 996.0
20260509195703 17 250 3.2 3.2 0.00 0.00 0.00 76 995.0
20260509195202 16 348 1.6 1.6 0.00 0.00 0.00 83 995.0
20260509194702 16 276 3.2 3.2 0.00 0.00 0.00 82 995.0
20260509194202 15 296 3.2 3.2 0.00 0.00 0.00 84 995.0
20260509193702 14 302 3.2 3.2 0.00 0.00 0.00 87 995.0
20260509193203 13 155 3.2 3.2 0.00 0.00 0.00 88 995.0
20260509192706 13 249 4.8 4.8 0.00 0.00 0.00 89 996.0
20260509192202 13 252 3.2 3.2 0.00 0.00 0.00 88 996.0
20260509191703 13 312 4.8 4.8 0.00 0.00 0.00 87 996.0
20260509191202 14 318 8.0 9.7 0.00 0.00 0.00 81 995.0
20260509190703 17 234 3.2 3.2 0.00 0.00 0.00 63 995.0
20260509190203 18 258 0.0 0.0 0.00 0.00 0.00 61 995.0
20260509185703 17 289 3.2 3.2 0.00 0.00 0.00 63 995.0
20260509185202 17 249 3.2 3.2 0.00 0.00 0.00 68 995.0
20260509184704 17 252 4.8 4.8 0.00 0.00 0.00 65 995.0
20260509184202 18 228 4.8 4.8 0.00 0.00 0.00 62 995.0
20260509183702 20 244 4.8 4.8 0.00 0.00 0.00 49 995.0
20260509183203 20 216 3.2 3.2 0.00 0.00 0.00 49 995.0
20260509182702 20 247 6.4 6.4 0.00 0.00 0.00 48 995.0
20260509182203 21 282 6.4 8.0 0.00 0.00 0.00 48 995.0
20260509181702 21 300 3.2 3.2 0.00 0.00 0.00 48 995.0
20260509181204 21 282 9.7 9.7 0.00 0.00 0.00 47 995.0
20260509180702 21 216 3.2 3.2 0.00 0.00 0.00 48 995.0
20260509180203 21 306 4.8 6.4 0.00 0.00 0.00 46 995.0
20260509175702 20 276 3.2 3.2 0.00 0.00 0.00 48 995.0
20260509175202 20 265 3.2 3.2 0.00 0.00 0.00 49 995.0
20260509174704 20 263 3.2 3.2 0.00 0.00 0.00 48 995.0
20260509174204 20 66 4.8 4.8 0.00 0.00 0.00 46 995.0
20260509173702 20 246 8.0 9.7 0.00 0.00 0.00 48 995.0
20260509173202 20 226 6.4 8.0 0.00 0.00 0.00 48 995.0
20260509172702 21 204 4.8 4.8 0.00 0.00 0.00 47 995.0
20260509172205 21 42 4.8 6.4 0.00 0.00 0.00 47 995.0
20260509171704 21 210 8.0 9.7 0.00 0.00 0.00 48 995.0
20260509171203 20 262 6.4 6.4 0.00 0.00 0.00 50 995.0
20260509170702 20 256 8.0 8.0 0.00 0.00 0.00 49 995.0
20260509170202 20 245 4.8 4.8 0.00 0.00 0.00 50 995.0
20260509165702 20 235 6.4 8.0 0.00 0.00 0.00 49 996.0
20260509165202 20 30 8.0 8.0 0.00 0.00 0.00 49 996.0
20260509164702 20 234 6.4 6.4 0.00 0.00 0.00 48 996.0
20260509164203 19 228 6.4 6.4 0.00 0.00 0.00 49 996.0
20260509163702 20 257 14.5 19.3 0.00 0.00 0.00 50 996.0
20260509163203 20 283 6.4 6.4 0.00 0.00 0.00 53 996.0
20260509162702 20 236 3.2 3.2 0.00 0.00 0.00 52 996.0
20260509162203 19 282 8.0 8.0 0.00 0.00 0.00 51 996.0
20260509161703 19 138 4.8 4.8 0.00 0.00 0.00 59 996.0
20260509161204 19 251 4.8 6.4 0.00 0.00 0.00 57 996.0
20260509160702 20 222 6.4 6.4 0.00 0.00 0.00 55 996.0
20260509160203 19 242 6.4 6.4 0.00 0.00 0.00 57 996.0
20260509155703 20 250 4.8 6.4 0.00 0.00 0.00 56 996.0
20260509155202 20 247 4.8 6.4 0.00 0.00 0.00 56 996.0